This demonstration page uses our WeatherBlox Daily Observations layout. Learn more.

Left ArrowRight Arrow

38.89511, -77.03637

Hourly Observations for September 27, 2022

Temp ( °F °C ) Dew Point ( °F °C ) Humidity (%) Winds ( mph kmh ) Pressure ( in mb ) Visibility ( mi km ) Precip ( " mm )
12:52 am 00:52 Cloudy 64 17.8 46 7.8 52 52 SW 3 6 29.87 1012 10 16 0.00 0.00
1:52 am 01:52 Cloudy 63 17.2 47 8.3 56 56 SSW 6 9 29.87 1012 10 16 0.00 0.00
2:52 am 02:52 Cloudy 64 17.8 43 6.1 46 46 W 3 6 29.86 1011 10 16 0.00 0.00
3:52 am 03:52 Cloudy 64 17.8 42 5.6 45 45 WNW 5 7 29.86 1011 10 16 0.00 0.00
4:52 am 04:52 Cloudy 64 17.8 42 5.6 45 45 W 6 9 29.87 1012 10 16 0.00 0.00
5:52 am 05:52 Cloudy 61 16.1 43 6.1 51 51 WSW 5 7 29.88 1012 10 16 0.00 0.00
6:52 am 06:52 Mostly Cloudy 61 16.1 43 6.1 51 51 WSW 3 6 29.90 1012 10 16 0.00 0.00
7:52 am 07:52 Partly Cloudy 62 16.7 44 6.7 52 52 W 5 7 29.91 1013 10 16 0.00 0.00
8:52 am 08:52 Partly Cloudy 66 18.9 44 6.7 45 45 W 6 9 29.92 1013 10 16 0.00 0.00
9:52 am 09:52 Mostly Sunny 69 20.6 43 6.1 39 39 W 7 11 29.93 1013 10 16 0.00 0.00
10:52 am 10:52 Mostly Sunny 71 21.7 44 6.7 38 38 W 10 17 29.94 1014 10 16 0.00 0.00
11:52 am 11:52 Mostly Sunny 72 22.2 41 5 33 33 W 15 24 29.93 1014 10 16 0.00 0.00
12:52 pm 12:52 Partly Cloudy 74 23.3 38 3.3 27 27 W 16 26 29.94 1014 10 16 0.00 0.00
1:52 pm 13:52 Mostly Cloudy 72 22.2 39 3.9 30 30 WNW 13 20 29.93 1013 10 16 0.00 0.00
2:52 pm 14:52 Mostly Cloudy 74 23.3 41 5 30 30 W 10 17 29.92 1013 10 16 0.00 0.00
3:52 pm 15:52 Mostly Cloudy 73 22.8 39 3.9 29 29 W 10 17 29.93 1013 10 16 0.00 0.00
4:52 pm 16:52 Mostly Cloudy 70 21.1 39 3.9 32 32 NW 13 20 29.94 1014 10 16 0.00 0.00
5:52 pm 17:52 Mostly Cloudy 70 21.1 39 3.9 32 32 W 9 15 29.96 1014 10 16 0.00 0.00
6:52 pm 18:52 Partly Cloudy 67 19.4 39 3.9 36 36 WNW 10 17 29.97 1015 10 16 0.00 0.00
7:52 pm 19:52 Mostly Clear 65 18.3 40 4.4 40 40 WNW 8 13 30.00 1016 10 16 0.00 0.00
8:52 pm 20:52 Mostly Clear 63 17.2 41 5 44 44 WNW 13 20 30.04 1017 10 16 0.00 0.00
9:52 pm 21:52 Mostly Clear 61 16.1 41 5 48 48 NW 10 17 30.06 1018 10 16 0.00 0.00
10:52 pm 22:52 Mostly Clear 60 15.6 41 5 49 49 NW 10 17 30.08 1019 10 16 0.00 0.00
11:52 pm 23:52 Mostly Clear 59 15 42 5.6 53 53 NW 8 13 30.09 1019 10 16 0.00 0.00

Powered by AerisWeather